Find Te Punaha Atea-1

NORAD ID: 64533 Int'l Des: 2025-135 Owner: TPA Country: NZ operational
LEOCIRCULARRETROGRADESSO

Current View

Loading 3D Globe...

About Te Punaha Atea-1

Description loading...

Upcoming Passes

Passes for default location (London). Set your location on the main map for personalized predictions.

Altitude History

Loading altitude history...

Two-Line Element Set

1 64533U 25135F 26149.26258471 .00004654 00000-0 21132-3 0 9995
2 64533 97.4670 264.3539 0003720 248.3597 111.7242 15.21272877 51970
Epoch: May 29, 2026 • Age: 18 hours

Current Status

Altitude 522.2 km
Velocity 7.60 km/s
Sub-Earth Point -58.72°S, 174.43°E
Launch Date Jun 23, 2025
Age 0.9 years
Type other

Technical Details

Classification Payload
Mass 5.00 kg
Dry Mass 5.00 kg
Total Mass 5.00 kg
Length 0.30 m
Diameter 0.10 m
Span 3.00 m
Shape Box
Manufacturer NANAV/TPA
Bus Type Cubesat 3U
Phase Status In Orbit
Owner/State TPA/NZ

Most Searched